Location: Maignaut
(43.8886°N, 0.4051°E)
Time: 16:40:47
(UTC+00:00)

STARLINK-1038 - Pass Details

Date: 27 February 2020
Orbit: 549 x 550 km, 53.0° (Epoch: 07 April)

Event Time Altitude Azimuth Distance (km) Brightness Sun altitude
Rises 18:17:14 0° 227° (SW) 2,705 8.1 -6.9°
Reaches altitude 10° 18:19:28 10° 224° (SW) 1,815 7.1 -7.3°
Maximum altitude 18:23:33 69° 142° (SE) 590 3.6 -8.0°
Drops below altitude 10° 18:27:41 10° 59° (ENE) 1,826 5.7 -8.7°
Enters shadow 18:27:58 - 59° (ENE) 1,939 5.9 -8.8°
